• In Hungary
  • List of Countries
  • For 7 days
  • Water Temperature
  • Satellite Maps
  • Weather Map
  • News
  • Weather Widgets
  • user-avatar
    Login

    Hourly Weather Kopylovka

    Today, 23 July, Monday

    Time Temperature Precipitation Wind Pressure Humidity
    00:00 +13°C° 0 mm 5 mps 751 mmHg 42%
    01:00 +12°C° 0 mm 5 mps 751 mmHg 42%
    02:00 +12°C° 0 mm 5 mps 751 mmHg 42%
    03:00 +12°C° 0 mm 5 mps 751 mmHg 43%
    04:00 +12°C° 0 mm 5 mps 751 mmHg 44%
    05:00 +13°C° 0 mm 6 mps 750 mmHg 47%
    06:00 +14°C° 0 mm 6 mps 750 mmHg 45%
    07:00 +15°C° 0 mm 6 mps 750 mmHg 44%
    08:00 +16°C° 0 mm 6 mps 750 mmHg 43%
    09:00 +17°C° 0 mm 6 mps 750 mmHg 40%
    10:00 +20°C° 0 mm 6 mps 750 mmHg 37%
    11:00 +21°C° 0 mm 6 mps 750 mmHg 34%
    12:00 +22°C° 0 mm 6 mps 750 mmHg 33%
    13:00 +23°C° 0 mm 6 mps 749 mmHg 32%
    14:00 +23°C° 0 mm 6 mps 749 mmHg 31%
    15:00 +23°C° 0 mm 5 mps 749 mmHg 34%
    16:00 +23°C° 0 mm 4 mps 749 mmHg 37%
    17:00 +22°C° 0 mm 3 mps 749 mmHg 39%
    18:00 +21°C° 0 mm 3 mps 749 mmHg 43%
    19:00 +20°C° 0 mm 3 mps 749 mmHg 46%
    20:00 +18°C° 0 mm 3 mps 749 mmHg 49%
    21:00 +18°C° 0 mm 3 mps 748 mmHg 50%
    22:00 +17°C° 0 mm 3 mps 748 mmHg 51%
    23:00 +16°C° 0 mm 3 mps 748 mmHg 52%

    Tomorrow, 24 July, Tuesday

    Time Temperature Precipitation Wind Pressure Humidity
    00:00 +14°C° 0 mm 3 mps 748 mmHg 55%
    01:00 +14°C° 0 mm 3 mps 748 mmHg 57%
    02:00 +14°C° 0 mm 2 mps 748 mmHg 60%
    03:00 +13°C° 0 mm 3 mps 748 mmHg 61%
    04:00 +14°C° 0 mm 3 mps 747 mmHg 61%
    05:00 +16°C° 0 mm 3 mps 747 mmHg 62%
    06:00 +18°C° 0 mm 4 mps 747 mmHg 59%
    07:00 +20°C° 0 mm 4 mps 748 mmHg 55%
    08:00 +23°C° 0 mm 4 mps 748 mmHg 52%
    09:00 +25°C° 0 mm 5 mps 748 mmHg 49%
    10:00 +26°C° 0 mm 5 mps 748 mmHg 45%
    11:00 +27°C° 0 mm 5 mps 748 mmHg 42%
    12:00 +27°C° 0 mm 5 mps 748 mmHg 38%
    13:00 +27°C° 0 mm 5 mps 748 mmHg 35%
    14:00 +27°C° 0 mm 5 mps 748 mmHg 32%
    15:00 +27°C° 0 mm 5 mps 748 mmHg 32%
    16:00 +26°C° 0 mm 5 mps 749 mmHg 32%
    17:00 +26°C° 0 mm 4 mps 749 mmHg 31%
    18:00 +22°C° 0 mm 4 mps 749 mmHg 38%
    19:00 +20°C° 0 mm 3 mps 749 mmHg 45%
    20:00 +17°C° 0 mm 3 mps 750 mmHg 51%
    21:00 +16°C° 0 mm 3 mps 750 mmHg 53%
    22:00 +14°C° 0 mm 3 mps 750 mmHg 56%
    23:00 +13°C° 0 mm 3 mps 750 mmHg 58%

    Day after tomorrow, 25 July, Wednesday

    Time Temperature Precipitation Wind Pressure Humidity
    00:00 +13°C° 0 mm 3 mps 751 mmHg 60%
    01:00 +12°C° 0 mm 3 mps 751 mmHg 61%
    02:00 +11°C° 0 mm 3 mps 751 mmHg 63%
    03:00 +12°C° 0 mm 3 mps 752 mmHg 62%
    04:00 +12°C° 0 mm 3 mps 752 mmHg 61%
    05:00 +12°C° 0 mm 3 mps 752 mmHg 59%
    06:00 +14°C° 0 mm 4 mps 752 mmHg 54%
    07:00 +17°C° 0 mm 4 mps 753 mmHg 48%
    08:00 +19°C° 0 mm 5 mps 753 mmHg 43%
    09:00 +20°C° 0 mm 5 mps 753 mmHg 40%
    10:00 +21°C° 0 mm 5 mps 753 mmHg 37%
    11:00 +22°C° 0 mm 5 mps 753 mmHg 34%
    12:00 +23°C° 0 mm 5 mps 753 mmHg 33%
    13:00 +23°C° 0 mm 5 mps 753 mmHg 32%
    14:00 +25°C° 0 mm 5 mps 752 mmHg 30%
    15:00 +25°C° 0 mm 5 mps 753 mmHg 32%
    16:00 +25°C° 0 mm 4 mps 753 mmHg 33%
    17:00 +25°C° 0 mm 4 mps 753 mmHg 35%
    18:00 +22°C° 0 mm 4 mps 753 mmHg 38%
    19:00 +20°C° 0 mm 4 mps 753 mmHg 42%
    20:00 +18°C° 0 mm 4 mps 753 mmHg 46%
    21:00 +17°C° 0.1 mm 3 mps 753 mmHg 56%
    22:00 +16°C° 0.1 mm 2 mps 753 mmHg 66%
    23:00 +15°C° 0.1 mm 1 mps 753 mmHg 76%

    26 July, Thursday

    Time Temperature Precipitation Wind Pressure Humidity
    00:00 +14°C° 0.1 mm 1 mps 752 mmHg 79%
    01:00 +14°C° 0.1 mm 1 mps 752 mmHg 82%
    02:00 +14°C° 0.1 mm 1 mps 752 mmHg 85%
    03:00 +14°C° 0.1 mm 1 mps 752 mmHg 84%
    04:00 +15°C° 0.1 mm 1 mps 752 mmHg 84%
    05:00 +15°C° 0.1 mm 1 mps 752 mmHg 84%
    06:00 +18°C° 0 mm 1 mps 752 mmHg 77%
    07:00 +19°C° 0 mm 1 mps 752 mmHg 71%
    08:00 +20°C° 0 mm 2 mps 752 mmHg 64%
    09:00 +21°C° 0 mm 2 mps 752 mmHg 61%
    10:00 +22°C° 0 mm 3 mps 752 mmHg 58%
    11:00 +24°C° 0 mm 3 mps 752 mmHg 54%
    12:00 +24°C° 0 mm 3 mps 752 mmHg 53%
    13:00 +25°C° 0 mm 4 mps 752 mmHg 51%
    14:00 +25°C° 0 mm 4 mps 752 mmHg 49%
    15:00 +25°C° 0.2 mm 4 mps 752 mmHg 52%
    16:00 +23°C° 0.2 mm 4 mps 753 mmHg 55%
    17:00 +23°C° 0.2 mm 4 mps 753 mmHg 59%
    18:00 +21°C° 0.3 mm 4 mps 753 mmHg 64%
    19:00 +20°C° 0.3 mm 4 mps 753 mmHg 69%
    20:00 +18°C° 0.3 mm 4 mps 754 mmHg 75%
    21:00 +18°C° 0 mm 4 mps 754 mmHg 76%
    22:00 +17°C° 0 mm 4 mps 754 mmHg 78%
    23:00 +15°C° 0 mm 4 mps 754 mmHg 79%

    27 July, Friday

    Time Temperature Precipitation Wind Pressure Humidity
    00:00 +14°C° 0 mm 3 mps 754 mmHg 83%
    01:00 +14°C° 0 mm 3 mps 754 mmHg 88%
    02:00 +13°C° 0 mm 3 mps 754 mmHg 92%
    03:00 +13°C° 0 mm 3 mps 755 mmHg 90%
    04:00 +13°C° 0 mm 3 mps 755 mmHg 88%
    05:00 +14°C° 0 mm 4 mps 755 mmHg 86%
    06:00 +15°C° 0 mm 4 mps 755 mmHg 79%
    07:00 +18°C° 0 mm 4 mps 755 mmHg 71%
    08:00 +20°C° 0 mm 4 mps 755 mmHg 64%
    09:00 +21°C° 0 mm 5 mps 755 mmHg 58%
    10:00 +22°C° 0 mm 5 mps 755 mmHg 53%
    11:00 +23°C° 0 mm 5 mps 755 mmHg 47%
    12:00 +25°C° 0 mm 5 mps 755 mmHg 44%
    13:00 +25°C° 0 mm 5 mps 755 mmHg 41%
    14:00 +26°C° 0 mm 5 mps 755 mmHg 38%
    15:00 +25°C° 0 mm 4 mps 755 mmHg 38%
    16:00 +25°C° 0 mm 4 mps 755 mmHg 38%
    17:00 +25°C° 0 mm 4 mps 755 mmHg 38%
    18:00 +22°C° 0 mm 3 mps 755 mmHg 44%
    19:00 +19°C° 0 mm 3 mps 755 mmHg 51%
    20:00 +17°C° 0 mm 2 mps 755 mmHg 57%
    21:00 +16°C° 0 mm 2 mps 755 mmHg 58%
    22:00 +15°C° 0 mm 2 mps 755 mmHg 58%
    23:00 +14°C° 0 mm 2 mps 755 mmHg 59%

    28 July, Saturday

    Time Temperature Precipitation Wind Pressure Humidity
    00:00 +14°C° 0 mm 2 mps 755 mmHg 61%
    01:00 +13°C° 0 mm 2 mps 755 mmHg 62%
    02:00 +12°C° 0 mm 2 mps 755 mmHg 64%
    03:00 +13°C° 0 mm 2 mps 755 mmHg 64%
    04:00 +13°C° 0 mm 2 mps 755 mmHg 65%
    05:00 +14°C° 0 mm 2 mps 755 mmHg 65%
    06:00 +16°C° 0 mm 2 mps 755 mmHg 60%
    07:00 +19°C° 0 mm 2 mps 755 mmHg 54%
    08:00 +21°C° 0 mm 2 mps 755 mmHg 49%
    09:00 +23°C° 0 mm 2 mps 755 mmHg 45%
    10:00 +25°C° 0 mm 2 mps 754 mmHg 42%
    11:00 +26°C° 0 mm 2 mps 754 mmHg 38%
    12:00 +27°C° 0 mm 2 mps 754 mmHg 39%
    13:00 +27°C° 0 mm 1 mps 754 mmHg 39%
    14:00 +27°C° 0 mm 1 mps 754 mmHg 40%
    15:00 +26°C° 0 mm 1 mps 753 mmHg 42%
    16:00 +26°C° 0 mm 1 mps 753 mmHg 45%
    17:00 +25°C° 0 mm 1 mps 753 mmHg 48%
    18:00 +23°C° 0 mm 1 mps 753 mmHg 53%
    19:00 +21°C° 0 mm 1 mps 753 mmHg 59%
    20:00 +17°C° 0 mm 0 mps 753 mmHg 64%
    21:00 +17°C° 0 mm 0 mps 753 mmHg 64%
    22:00 +16°C° 0 mm 0 mps 753 mmHg 65%
    23:00 +16°C° 0 mm 0 mps 753 mmHg 65%
    Show more